COSMOS 2251 DEB, 47051

Orbit data source: Space-Track

COSMOS 2251 DEB, 47051 is space debris in LEO originally from a launch on Wed, 16 Jun 1993 UTC launched from the Plesetsk Missile And Space Complex (PKMTR). The debris from Iridium 33, an American commercial communications satellite, has been tracked extensively since its accidental collision with the defunct Russian satellite Cosmos 2251 in 2009. This event, occurring at high speed in low Earth orbit (LEO), generated thousands of pieces of space debris, significantly increasing the risk of further collisions. The Iridium 33 debris cloud has impacted space traffic management and orbital debris mitigation strategies, making it a subject of ongoing study in space situational awareness.

Loading next visibility...
Identifier
47051, 1993-036BXF
Orbit
LEO
Country
Flag of CISCIS
Related business
Manufacturer
Unknown
Mission
Spacecraft
Bus & Motor
Unknown
Mass
Unknown
Launch date (UTC)
1993-06-16 (33 years ago)
Launch vehicle
Unknown
Launch site
Plesetsk Missile And Space Complex (PKMTR)
Object type
Payload
Rocket body
Debris
Shape & HBR
Unknown shape, 0.1 m
Radar Cross Section
Small (<0.1 m²)

Expand to show TLE details & history
Last TLE update: 2 days ago

TLE from 2 days ago
0 COSMOS 2251 DEB
1 47051U 93036BXF 26032.53207471  .00001919  00000-0  15396-2 0  9996
2 47051  74.1016 100.5663 0341885 202.9430 223.5997 13.67373139606325
Epoch: 2026-02-01T12:46Z
TLE epoch observation values (Epoch: 2026-02-01T12:46:11.254Z)
Latitude
59.85015°
Longitude
166.48189°
Altitude
1,205.711 km
Speed
7.164 km/s
True Right ascension
08h 39m 04s
True Declination
59° 42' 34"
Sunlit
Object was in full shadow at epoch
Visualization orbit readout
Latitude
Unknown
Longitude
Unknown
Altitude
Unknown
Speed
Unknown
Apparent Right ascension
Unknown
Apparent Declination
Unknown
Sunlit
N/A
Visualization observer readout
Local Sidereal Time
16:33:25
Azimuth
Unknown
Elevation
Unknown
Doppler factor
Unknown
Orbital elements
Apogee altitude
1,259.185 km
Perigee altitude
754.231 km
Semi-major axis
7,384.845 km
Eccentricity
0.03419
Inclination
74.1016°
RAAN
100.5663°
Arg. of periapsis
202.943°
True anomaly
220.98009°
Mean anomaly
223.5997°
Eccentric anomaly
222.28182°
Mean motion
3.42004 °/min
Orbital period
105.26 mins
BSTAR
0.0015396
Loading maneuver chart data...
Computing Atmospheric mass density...
Loading historical data...
Loading historical data...
Loading historical data...
Loading historical data...
Loading historical data...
Loading historical data...
Loading historical data...

Documentation

Showing up to 5 results
|